AFR3ML LFPG-KJFK

Flight info

Callsign AFR3ML
Flight time N/A
Altitude 40000
Route ATREX VESAN RATUK SOVAT/N0471F380 L613 SANDY OKSAW TEWXI VATRY DIGAN DOGAL/M082F380 55N020W 56N030W 56N040W 54N050W NEEKO/N0484F380 N622E TAFFY ENE PARCH4
Aircraft B772/H-SDE2E3FGHIJ5LORVWXY/LB1D1

Departure

Time N/A
Airport Charles de Gaulle International Airport (LFPG)

Arrival

Time 2026-05-04 21:34
Airport John F. Kennedy International Airport (KJFK)
Time Latitude Longitude Altitude Speed Heading
2026-05-04 21:05 41.35632 -71.83855 29646 ft 376 kts 227°
2026-05-04 21:05 41.33629 -71.86067 29213 ft 372 kts 227°
2026-05-04 21:05 41.31641 -71.88259 28772 ft 369 kts 227°
2026-05-04 21:05 41.29672 -71.90426 28349 ft 367 kts 226°
2026-05-04 21:06 41.27711 -71.92583 27899 ft 365 kts 227°
2026-05-04 21:06 41.25762 -71.94723 27479 ft 363 kts 227°
2026-05-04 21:06 41.23819 -71.96855 27070 ft 361 kts 226°
2026-05-04 21:06 41.21886 -71.98977 26653 ft 360 kts 226°
2026-05-04 21:07 41.19956 -72.01094 26263 ft 359 kts 226°
2026-05-04 21:07 41.18033 -72.03202 25886 ft 358 kts 226°
2026-05-04 21:07 41.16113 -72.05305 25489 ft 357 kts 226°
2026-05-04 21:07 41.14196 -72.07403 25108 ft 357 kts 226°
2026-05-04 21:08 41.12280 -72.09496 24711 ft 357 kts 225°
2026-05-04 21:08 41.10462 -72.11671 24303 ft 346 kts 236°
2026-05-04 21:08 41.09294 -72.14321 23942 ft 332 kts 255°
2026-05-04 21:08 41.08568 -72.17212 23581 ft 330 kts 257°
2026-05-04 21:09 41.07870 -72.20111 23163 ft 330 kts 257°
2026-05-04 21:09 41.07172 -72.23011 22758 ft 330 kts 257°
2026-05-04 21:09 41.06471 -72.25904 22357 ft 329 kts 257°
2026-05-04 21:09 41.05767 -72.28783 21998 ft 327 kts 256°
2026-05-04 21:10 41.05067 -72.31624 21677 ft 322 kts 256°
2026-05-04 21:10 41.04374 -72.34424 21342 ft 318 kts 256°
2026-05-04 21:10 41.03685 -72.37199 20928 ft 316 kts 256°
2026-05-04 21:10 41.02999 -72.39960 20543 ft 315 kts 256°
2026-05-04 21:11 41.02317 -72.42697 20154 ft 309 kts 255°
2026-05-04 21:11 41.01650 -72.45364 19510 ft 304 kts 255°
2026-05-04 21:11 41.00988 -72.48014 18768 ft 303 kts 255°
2026-05-04 21:11 41.00325 -72.50662 18068 ft 301 kts 255°
2026-05-04 21:12 40.99669 -72.53279 17346 ft 297 kts 255°
2026-05-04 21:12 40.99022 -72.55857 16659 ft 293 kts 254°
2026-05-04 21:12 40.98383 -72.58403 15965 ft 290 kts 254°
2026-05-04 21:12 40.97751 -72.60918 15275 ft 287 kts 253°
2026-05-04 21:13 40.97122 -72.63419 14611 ft 289 kts 253°
2026-05-04 21:13 40.96486 -72.65943 14244 ft 287 kts 253°
2026-05-04 21:13 40.95859 -72.68431 13961 ft 283 kts 253°
2026-05-04 21:13 40.95238 -72.70889 13586 ft 281 kts 253°
2026-05-04 21:14 40.94620 -72.73335 13170 ft 280 kts 253°
2026-05-04 21:14 40.94002 -72.75775 12773 ft 279 kts 253°
2026-05-04 21:14 40.93394 -72.78157 12380 ft 274 kts 251°
2026-05-04 21:14 40.92412 -72.80294 12054 ft 275 kts 230°
2026-05-04 21:15 40.90937 -72.81939 11783 ft 282 kts 220°
2026-05-04 21:15 40.89342 -72.83462 11502 ft 284 kts 220°
2026-05-04 21:15 40.87734 -72.84976 11268 ft 284 kts 220°
2026-05-04 21:15 40.86132 -72.86487 11028 ft 282 kts 220°
2026-05-04 21:16 40.84546 -72.87988 10813 ft 279 kts 220°
2026-05-04 21:16 40.82977 -72.89480 10592 ft 277 kts 220°
2026-05-04 21:16 40.81420 -72.90964 10372 ft 275 kts 220°
2026-05-04 21:16 40.79879 -72.92435 10155 ft 271 kts 220°
2026-05-04 21:17 40.78366 -72.93880 9944 ft 266 kts 220°
2026-05-04 21:17 40.76875 -72.95306 9711 ft 263 kts 220°
2026-05-04 21:17 40.75406 -72.96710 9512 ft 259 kts 220°
2026-05-04 21:17 40.73951 -72.98100 9288 ft 257 kts 220°
2026-05-04 21:18 40.72509 -72.99477 9084 ft 255 kts 220°
2026-05-04 21:18 40.71076 -73.00844 8877 ft 254 kts 220°
2026-05-04 21:18 40.69680 -73.02236 8665 ft 247 kts 228°
2026-05-04 21:18 40.68783 -73.04135 8497 ft 247 kts 253°
2026-05-04 21:19 40.68520 -73.06375 8309 ft 249 kts 270°
2026-05-04 21:19 40.68538 -73.08661 8107 ft 250 kts 271°
2026-05-04 21:19 40.68560 -73.10955 7889 ft 250 kts 271°
2026-05-04 21:19 40.68581 -73.13231 7684 ft 246 kts 271°
2026-05-04 21:20 40.68600 -73.15467 7487 ft 242 kts 271°
2026-05-04 21:20 40.68616 -73.17673 7299 ft 240 kts 270°
2026-05-04 21:20 40.68631 -73.19875 7109 ft 240 kts 270°
2026-05-04 21:20 40.68643 -73.22072 6916 ft 240 kts 270°
2026-05-04 21:21 40.68655 -73.24264 6725 ft 239 kts 270°
2026-05-04 21:21 40.68829 -73.26403 6502 ft 235 kts 289°
2026-05-04 21:21 40.69768 -73.28181 6322 ft 245 kts 317°
2026-05-04 21:21 40.71294 -73.29251 6105 ft 253 kts 334°
2026-05-04 21:22 40.72965 -73.30031 5934 ft 256 kts 336°
2026-05-04 21:22 40.74666 -73.30762 5797 ft 257 kts 337°
2026-05-04 21:22 40.76365 -73.31486 5691 ft 256 kts 337°
2026-05-04 21:22 40.78040 -73.32199 5655 ft 250 kts 337°
2026-05-04 21:23 40.79682 -73.32888 5593 ft 245 kts 337°
2026-05-04 21:23 40.81265 -73.33540 5521 ft 239 kts 337°
2026-05-04 21:23 40.82823 -73.34224 5358 ft 232 kts 332°
2026-05-04 21:23 40.84369 -73.34834 4937 ft 240 kts 351°
2026-05-04 21:24 40.86018 -73.35007 4557 ft 234 kts 339°
2026-05-04 21:24 40.87394 -73.36035 4245 ft 225 kts 310°
2026-05-04 21:24 40.88423 -73.37533 4077 ft 216 kts 307°
2026-05-04 21:24 40.89422 -73.38989 4016 ft 212 kts 307°
2026-05-04 21:25 40.90410 -73.40417 3987 ft 209 kts 307°
2026-05-04 21:25 40.91331 -73.41841 3968 ft 198 kts 295°
2026-05-04 21:25 40.91627 -73.43523 3974 ft 189 kts 260°
2026-05-04 21:25 40.91251 -73.45189 3990 ft 193 kts 249°
2026-05-04 21:26 40.90739 -73.46828 3981 ft 192 kts 248°
2026-05-04 21:26 40.90218 -73.48435 3908 ft 190 kts 247°
2026-05-04 21:26 40.89701 -73.50049 3793 ft 191 kts 247°
2026-05-04 21:26 40.89187 -73.51663 3679 ft 190 kts 247°
2026-05-04 21:27 40.88666 -73.53283 3521 ft 193 kts 247°
2026-05-04 21:27 40.88144 -73.54907 3443 ft 191 kts 247°
2026-05-04 21:27 40.87613 -73.56497 3356 ft 186 kts 240°
2026-05-04 21:27 40.86703 -73.57714 3111 ft 187 kts 218°
2026-05-04 21:28 40.85665 -73.58692 3053 ft 181 kts 218°
2026-05-04 21:28 40.84638 -73.59608 3030 ft 180 kts 216°
2026-05-04 21:28 40.83565 -73.60497 3023 ft 179 kts 214°
2026-05-04 21:28 40.82528 -73.61325 2979 ft 169 kts 213°
2026-05-04 21:29 40.81560 -73.62094 2958 ft 161 kts 215°
2026-05-04 21:29 40.80601 -73.62851 2975 ft 162 kts 213°
2026-05-04 21:29 40.79639 -73.63610 2968 ft 159 kts 214°
2026-05-04 21:29 40.78693 -73.64359 2990 ft 159 kts 214°
2026-05-04 21:30 40.77731 -73.65114 2991 ft 160 kts 215°
2026-05-04 21:30 40.76807 -73.65840 2777 ft 148 kts 214°
2026-05-04 21:30 40.75945 -73.66517 2587 ft 141 kts 215°
2026-05-04 21:30 40.75099 -73.67182 2437 ft 143 kts 215°
2026-05-04 21:31 40.73452 -73.68481 2062 ft 137 kts 213°
2026-05-04 21:31 40.72631 -73.69123 1870 ft 138 kts 214°
2026-05-04 21:31 40.71802 -73.69777 1688 ft 140 kts 213°
2026-05-04 21:32 40.70980 -73.70424 1508 ft 137 kts 212°
2026-05-04 21:32 40.70172 -73.71057 1300 ft 134 kts 211°
2026-05-04 21:32 40.69363 -73.71664 1130 ft 133 kts 210°
2026-05-04 21:32 40.68542 -73.72302 1041 ft 138 kts 211°
2026-05-04 21:33 40.67731 -73.72962 807 ft 137 kts 210°
2026-05-04 21:33 40.66935 -73.73610 625 ft 132 kts 209°
2026-05-04 21:33 40.66154 -73.74222 404 ft 131 kts 208°
2026-05-04 21:33 40.65387 -73.74852 281 ft 129 kts 205°
2026-05-04 21:34 40.64608 -73.75417 104 ft 131 kts 207°
2026-05-04 21:34 40.63845 -73.76038 46 ft 129 kts 205°
2026-05-04 21:34 40.63164 -73.76548 30 ft 90 kts 210°
2026-05-04 21:34 40.62796 -73.76836 27 ft 21 kts 214°
2026-05-04 21:35 40.62661 -73.76947 29 ft 21 kts 209°
2026-05-04 21:35 40.62574 -73.77088 29 ft 19 kts 268°
2026-05-04 21:35 40.62589 -73.77194 29 ft 11 kts 300°
2026-05-04 21:35 40.62609 -73.77220 29 ft 0 kts 328°
2026-05-04 21:36 40.62616 -73.77225 29 ft 6 kts 331°
2026-05-04 21:36 40.62696 -73.77256 29 ft 13 kts 353°
2026-05-04 21:36 40.62780 -73.77218 28 ft 14 kts 30°
2026-05-04 21:36 40.62862 -73.77154 28 ft 14 kts 31°
2026-05-04 21:37 40.62944 -73.77095 28 ft 10 kts 15°
2026-05-04 21:37 40.63002 -73.77139 29 ft 10 kts 305°
2026-05-04 21:37 40.63042 -73.77220 31 ft 10 kts 301°
2026-05-04 21:37 40.63079 -73.77302 32 ft 10 kts 300°
2026-05-04 21:38 40.63116 -73.77385 32 ft 10 kts 300°
2026-05-04 21:38 40.63154 -73.77471 34 ft 13 kts 300°
2026-05-04 21:38 40.63223 -73.77618 32 ft 25 kts 301°
2026-05-04 21:38 40.63324 -73.77846 30 ft 30 kts 300°
2026-05-04 21:39 40.63396 -73.78013 28 ft 15 kts 299°
2026-05-04 21:39 40.63448 -73.78136 29 ft 15 kts 299°
2026-05-04 21:39 40.63505 -73.78255 29 ft 15 kts 302°
2026-05-04 21:39 40.63561 -73.78375 32 ft 15 kts 301°
2026-05-04 21:40 40.63615 -73.78496 34 ft 15 kts 301°
2026-05-04 21:40 40.63670 -73.78617 33 ft 15 kts 301°
2026-05-04 21:40 40.63724 -73.78739 33 ft 15 kts 300°
2026-05-04 21:40 40.63781 -73.78863 31 ft 17 kts 301°
2026-05-04 21:41 40.63844 -73.79001 28 ft 18 kts 301°
2026-05-04 21:41 40.63907 -73.79143 31 ft 18 kts 300°
2026-05-04 21:41 40.63971 -73.79284 29 ft 18 kts 301°
2026-05-04 21:41 40.64035 -73.79425 27 ft 18 kts 300°
2026-05-04 21:42 40.64118 -73.79508 27 ft 15 kts 354°
2026-05-04 21:42 40.64213 -73.79489 29 ft 13 kts 43°
2026-05-04 21:42 40.64201 -73.79390 29 ft 9 kts 129°
2026-05-04 21:42 40.64178 -73.79328 29 ft 5 kts 108°
2026-05-04 21:43 40.64174 -73.79316 29 ft 0 kts 111°